User: anonymous   Login
Location: Clifton Park
(41.4873°N, 81.8024°W)
Time: 22:52:00
(UTC+00:00)
Language:

Cosmos 2181 Rocket - Orbit

View from above orbital plane
View from above orbital plane
View from above satellite
View from above satellite

Ground track
Ground track

The orbit data is extracted from the following two-line orbital elements,

1 21903U 92012B   20093.69635733  .00000029  00000-0  14320-4 0  9990
2 21903  82.9368 147.8023 0044061 126.9744 349.1980 13.74505357407753
Epoch (UTC): 02 April 2020 16:42:45
Eccentricity: 0.0044061
inclination: 82.9368°
perigee height: 951 km
apogee height: 1016 km
right ascension of ascending node: 147.8023°
argument of perigee: 126.9744°
revolutions per day: 13.74505357
mean anomaly at epoch: 349.1980°
orbit number at epoch: 40775

The dashed part of the orbit path shows where the satellite is in the earth's shadow,  

DLR